Find Starlink 5174

NORAD ID: 54067 Int'l Des: 2022-136 Owner: SPXS Country: US Constellation: starlink operational
LEOCIRCULAR

当前视图

正在加载3D地球...

About Starlink 5174

Starlink 5174 (NORAD 54067) is a starlink constellation satellite (v1.5) launched Oct 20, 2022 by SPXS of US. It operates in LEO, CIRCULAR orbit with a mass of 305.00 kg.

关于 Starlink 5174

正在加载描述...

即将过境

Passes for default location (London). Set your location on the main map for personalized predictions.

高度历史

Loading altitude history...

两行轨道根数

1 54067U 22136S 26170.21238808 .00000177 00000-0 29239-4 0 9998
2 54067 53.1600 248.0324 0001103 86.0366 274.0751 15.08835000202174
Epoch: Jun 19, 2026 • Age: 4 hours

当前状态

高度 541.2 km
速度 7.60 km/s
星下点 31.37°N, 0.69°W
发射日期 Oct 20, 2022
运行时间 3.6 years
类型 internet

技术详情

分类 Payload
质量 305.00 kg
干质量 290.00 kg
总质量 305.00 kg
长度 0.20 m
直径 2.80 m
跨度 9.00 m
形状 Box + pan
制造商 SPXS
平台类型 Starlink
阶段状态 In Orbit
所有者/国家 SPXS/US

Most Searched